Showing default

ELEKTRON 1, 746

Orbit data source: Space-Track

ELEKTRON 1, 746 is a payload satellite owned by OKB-1 (CIS) that was launched on Thu, 30 Jan 1964 UTC via a VOSTOK 8K72 launch vehicle from the Tyuratam Missile And Space Complex (TTMTR). Payload-class satellites include a variety of spacecraft equipped with specific instruments for various scientific and technological missions. These include communications satellites like Starlink; space stations such as the ISS; scientific satellites like the Hubble; Earth observation satellites from companies like Planet Labs, Umbra, and HawkEye 360; GPS; miniature CubeSats for education and research; and military/defense satellites.

Loading next visibility...
Identifier
746, 1964-006A
Orbit
Active
Country
Flag of CISCIS
Related business
Manufacturer
OKB-1
Mission
Spacecraft
Bus & Motor
OBJECT D, SRM
Mass
350 kg wet, 350 kg dry
Launch date (UTC)
1964-01-30 (62 years ago)
Launch vehicle
VOSTOK 8K72
Launch site
Tyuratam Missile And Space Complex (TTMTR)
Object type
Payload
Rocket body
Debris
Shape & HBR
Unknown
Radar Cross Section
Large (>1 m²)

Expand to show TLE details & history
Last TLE update: 22 hours ago

TLE from 22 hours ago
0 ELEKTRON 1
1   746U 64006A   26044.21400204  .00001482  00000-0  43785-3 0  9997
2   746  60.8877 356.2424 2989841 195.1755 153.5592  9.10571360 55951
Epoch: 2026-02-13T05:08Z
TLE epoch observation values (Epoch: 2026-02-13T05:08:09.776Z)
Latitude
0.00001°
Longitude
135.94705°
Altitude
6,023.822 km
Speed
4.811 km/s
True Right ascension
23h 44m 58s
True Declination
0° 00' 00"
Sunlit
Object was in daylight at epoch
Visualization orbit readout
Latitude
Unknown
Longitude
Unknown
Altitude
Unknown
Speed
Unknown
Apparent Right ascension
Unknown
Apparent Declination
Unknown
Sunlit
N/A
Visualization observer readout
Local Sidereal Time
06:11:34
Azimuth
Unknown
Elevation
Unknown
Doppler factor
Unknown
Orbital elements
Apogee altitude
6,204.238 km
Perigee altitude
412.127 km
Semi-major axis
9,686.319 km
Eccentricity
0.29898
Inclination
60.8877°
RAAN
356.2424°
Arg. of periapsis
195.1755°
True anomaly
164.90021°
Mean anomaly
153.5592°
Eccentric anomaly
159.54565°
Mean motion
2.2767 °/min
Orbital period
158.12 mins
BSTAR
0.00043785
Loading maneuver chart data...
Computing Atmospheric mass density...

Documentation

Showing up to 5 results
|